Location: Newark
(54.7500°N, 9.9000°E)
Time: 15:34:29
(UTC+00:00)

N. Korean satellite - Visible Passes

Search period start: 27 January 2021 00:00
Search period end: 06 February 2021 00:00
Orbit: 452 x 502 km, 97.2° (Epoch: 27 January)

Date Brightness Start Highest point End Pass type
(mag) Time Alt. Az. Time Alt. Az. Time Alt. Az.
27 Jan 9.6 03:51:14 10° NE 03:53:17 15° E 03:55:18 10° SE visible
27 Jan 6.4 05:23:32 10° N 05:26:59 57° WNW 05:30:21 10° SSW visible
28 Jan 6.6 04:56:54 10° NNE 05:00:23 72° ESE 05:03:47 10° S visible
28 Jan 8.2 06:31:21 10° NNW 06:33:15 14° WNW 06:35:08 10° W visible
28 Jan 10.0 17:14:01 10° WSW 17:15:31 12° W 17:17:00 10° WNW visible
29 Jan 8.0 04:30:27 10° NNE 04:33:41 36° E 04:36:52 10° SSE visible
29 Jan 7.6 06:04:04 10° N 06:06:53 23° WNW 06:09:38 10° WSW visible
29 Jan 9.5 16:45:49 10° SW 16:48:39 21° W 16:51:27 10° NW visible
30 Jan 9.2 04:04:17 10° NE 04:06:54 20° E 04:09:28 10° SE visible
30 Jan 6.8 05:37:07 10° N 05:40:25 41° WNW 05:43:39 10° SW visible
31 Jan 9.9 03:39:01 10° ENE 03:40:00 11° E 03:40:59 10° ESE visible
31 Jan 6.3 05:10:24 10° NNE 05:13:51 80° WNW 05:17:16 10° SSW visible
01 Feb 7.3 04:43:49 10° NNE 04:47:12 51° E 04:50:32 10° S visible
01 Feb 7.9 06:17:50 10° NNW 06:20:13 18° WNW 06:22:35 10° WSW visible
01 Feb 9.8 16:59:59 10° SW 17:02:14 16° W 17:04:29 10° NW visible
02 Feb 8.6 04:17:28 10° NE 04:20:26 26° E 04:23:23 10° SSE visible
02 Feb 7.2 05:50:44 10° N 05:53:47 30° WNW 05:56:49 10° SW visible
03 Feb 9.6 03:51:33 10° NE 03:53:34 15° E 03:55:36 10° SE visible
03 Feb 6.4 05:23:52 10° N 05:27:15 56° WNW 05:30:36 10° SSW visible
04 Feb 6.6 04:57:12 10° NNE 05:00:38 73° ESE 05:04:02 10° S visible
04 Feb 10.1 17:14:31 10° WSW 17:15:48 12° W 17:17:05 10° WNW visible
05 Feb 8.0 04:30:43 10° NNE 04:33:55 36° E 04:37:06 10° SSE visible
05 Feb 7.6 06:04:20 10° N 06:07:06 23° WNW 06:09:50 10° WSW visible
05 Feb 9.6 16:46:11 10° SW 16:48:54 20° W 16:51:36 10° NW visible
